EN

Hourly Weather Altenberg

Today, 25 January, Monday

Time Temperature Precipitation Wind Pressure Humidity
00:00 -3°C° 0.5 mm 2 mps 700 mmHg 94%
01:00 -4°C° 0.9 mm 3 mps 700 mmHg 94%
02:00 -2°C° 0.9 mm 3 mps 700 mmHg 94%
03:00 -3°C° 0.9 mm 4 mps 700 mmHg 95%
04:00 -2°C° 0.7 mm 3 mps 701 mmHg 94%
05:00 -2°C° 0.7 mm 3 mps 701 mmHg 93%
06:00 -2°C° 0.7 mm 3 mps 701 mmHg 91%
07:00 -4°C° 0.3 mm 4 mps 707 mmHg 92%
08:00 -4°C° 0.3 mm 4 mps 708 mmHg 91%
09:00 -3°C° 0.3 mm 4 mps 709 mmHg 90%
10:00 -3°C° 0.1 mm 4 mps 709 mmHg 87%
11:00 -2°C° 0.1 mm 5 mps 709 mmHg 83%
12:00 -2°C° 0.1 mm 5 mps 710 mmHg 80%
13:00 -2°C° 0.1 mm 5 mps 710 mmHg 83%
14:00 -2°C° 0.1 mm 4 mps 710 mmHg 85%
15:00 -2°C° 0.1 mm 4 mps 710 mmHg 88%
16:00 -3°C° 0.2 mm 4 mps 710 mmHg 89%
17:00 -3°C° 0.2 mm 4 mps 711 mmHg 90%
18:00 -3°C° 0.2 mm 4 mps 711 mmHg 91%
19:00 -4°C° 0.2 mm 3 mps 712 mmHg 92%
20:00 -4°C° 0.2 mm 3 mps 712 mmHg 92%
21:00 -4°C° 0.2 mm 3 mps 713 mmHg 93%
22:00 -4°C° 0.2 mm 3 mps 713 mmHg 93%
23:00 -4°C° 0.2 mm 3 mps 713 mmHg 92%

Tomorrow, 26 January, Tuesday

Time Temperature Precipitation Wind Pressure Humidity
00:00 -3°C° 0.2 mm 2 mps 713 mmHg 92%
01:00 -3°C° 0.2 mm 2 mps 713 mmHg 92%
02:00 -4°C° 0.2 mm 2 mps 713 mmHg 92%
03:00 -4°C° 0.2 mm 2 mps 713 mmHg 92%
04:00 -4°C° 0.2 mm 2 mps 713 mmHg 92%
05:00 -4°C° 0.2 mm 2 mps 713 mmHg 92%
06:00 -4°C° 0.2 mm 2 mps 714 mmHg 93%
07:00 -3°C° 0.1 mm 2 mps 714 mmHg 92%
08:00 -2°C° 0.1 mm 2 mps 714 mmHg 92%
09:00 -2°C° 0.1 mm 2 mps 715 mmHg 92%
10:00 -1°C° 0 mm 2 mps 714 mmHg 91%
11:00 +1°C° 0 mm 2 mps 714 mmHg 90%
12:00 +2°C° 0 mm 2 mps 714 mmHg 89%
13:00 +2°C° 0 mm 2 mps 714 mmHg 89%
14:00 +2°C° 0 mm 2 mps 714 mmHg 89%
15:00 +2°C° 0 mm 2 mps 713 mmHg 90%
16:00 +2°C° 0 mm 1 mps 713 mmHg 90%
17:00 +2°C° 0 mm 1 mps 713 mmHg 90%
18:00 +1°C° 0 mm 1 mps 713 mmHg 89%
19:00 -1°C° 0.2 mm 2 mps 713 mmHg 91%
20:00 -1°C° 0.2 mm 2 mps 713 mmHg 92%
21:00 -1°C° 0.2 mm 2 mps 713 mmHg 94%
22:00 -1°C° 0.1 mm 3 mps 713 mmHg 94%
23:00 -1°C° 0.1 mm 3 mps 713 mmHg 93%

Day after tomorrow, 27 January, Wednesday

Time Temperature Precipitation Wind Pressure Humidity
00:00 0°C° 0.1 mm 3 mps 712 mmHg 93%
01:00 -1°C° 0.1 mm 4 mps 712 mmHg 94%
02:00 0°C° 0.1 mm 4 mps 712 mmHg 96%
03:00 +1°C° 0.1 mm 4 mps 711 mmHg 97%
04:00 +1°C° 0.2 mm 4 mps 712 mmHg 97%
05:00 +3°C° 0.2 mm 4 mps 712 mmHg 97%
06:00 +3°C° 0.2 mm 4 mps 712 mmHg 98%
07:00 +3°C° 0.3 mm 4 mps 712 mmHg 98%
08:00 +3°C° 0.3 mm 4 mps 713 mmHg 98%
09:00 +3°C° 0.3 mm 3 mps 714 mmHg 98%
10:00 +3°C° 0.2 mm 3 mps 714 mmHg 97%
11:00 +4°C° 0.2 mm 3 mps 714 mmHg 96%
12:00 +4°C° 0.2 mm 3 mps 715 mmHg 95%
13:00 +4°C° 0.1 mm 3 mps 715 mmHg 94%
14:00 +4°C° 0.1 mm 3 mps 715 mmHg 94%
15:00 +4°C° 0.1 mm 2 mps 715 mmHg 94%
16:00 +3°C° 0 mm 2 mps 715 mmHg 93%
17:00 +2°C° 0 mm 2 mps 716 mmHg 92%
18:00 +1°C° 0 mm 2 mps 716 mmHg 91%
19:00 +1°C° 0 mm 2 mps 716 mmHg 89%
20:00 +1°C° 0 mm 2 mps 716 mmHg 87%
21:00 +2°C° 0 mm 1 mps 716 mmHg 86%
22:00 +2°C° 0 mm 1 mps 715 mmHg 84%
23:00 +2°C° 0 mm 1 mps 715 mmHg 83%

28 January, Thursday

Time Temperature Precipitation Wind Pressure Humidity
00:00 +2°C° 0 mm 1 mps 714 mmHg 82%
01:00 +2°C° 0 mm 2 mps 714 mmHg 82%
02:00 +2°C° 0 mm 2 mps 714 mmHg 82%
03:00 +3°C° 0 mm 2 mps 713 mmHg 83%
04:00 +3°C° 0.4 mm 2 mps 713 mmHg 85%
05:00 +2°C° 0.4 mm 3 mps 713 mmHg 88%
06:00 +2°C° 0.4 mm 3 mps 713 mmHg 91%
07:00 +3°C° 0.1 mm 3 mps 713 mmHg 92%
08:00 +3°C° 0.1 mm 3 mps 713 mmHg 93%
09:00 +4°C° 0.1 mm 3 mps 713 mmHg 95%
10:00 +5°C° 0 mm 4 mps 713 mmHg 94%
11:00 +5°C° 0 mm 4 mps 712 mmHg 93%
12:00 +6°C° 0 mm 4 mps 712 mmHg 92%
13:00 +6°C° 0.5 mm 4 mps 712 mmHg 92%
14:00 +5°C° 0.5 mm 5 mps 711 mmHg 93%
15:00 +5°C° 0.5 mm 5 mps 711 mmHg 93%
16:00 +5°C° 2.5 mm 4 mps 711 mmHg 94%
17:00 +4°C° 2.5 mm 4 mps 712 mmHg 94%
18:00 +4°C° 2.5 mm 4 mps 712 mmHg 95%

29 January, Friday

Time Temperature Precipitation Wind Pressure Humidity

30 January, Saturday

Time Temperature Precipitation Wind Pressure Humidity
Show more